Randolph, MN

12:19 AM CST on February 07, 2016 (GMT -0600)
Stanton

Weather History for KSYN - May, 2013

Change the Weather History Date:

Thursday, May 9, 2013

  Actual Average (KLVN) Record (KLVN)
Temperature  
Mean Temperature 52 °F -  
Max Temperature 59 °F 68 °F - (-1)
Min Temperature 45 °F 43 °F - (-1)
Degree Days  
Heating Degree Days 13    
Growing Degree Days 2 (Base 50)    
Moisture  
Dew Point 50 °F    
Average Humidity 86    
Maximum Humidity 94    
Minimum Humidity 73    
Precipitation  
Precipitation 0.11 in - - ()
Sea Level Pressure  
Sea Level Pressure 29.98 in    
Wind  
Wind Speed 7 mph (NNE)    
Max Wind Speed 25 mph    
Max Gust Speed 32 mph    
Visibility 8 miles    
Events Rain    
Averages and records for this station are not official NWS values.
T = Trace of Precipitation, MM = Missing Value Source: NWS Daily Summary

Daily Weather History Graph

Daily Weather History Graph

Search for Another Location

Airport or City:

Trip Planner

Search our weather history database for the weather conditions in past years. The results will help you decide how hot, cold, wet, or windy it might be!

Date:

Astronomy

May. 09, 2013 Rise Set
Actual Time 5:51 AM CDT 8:26 PM CDT
Civil Twilight 5:18 AM CDT 8:59 PM CDT
Nautical Twilight 4:36 AM CDT 9:41 PM CDT
Astronomical Twilight 3:49 AM CDT 10:28 PM CDT
Moon 5:37 AM CDT (5/9) 8:21 PM CDT (5/9)
Length of Visible Light 15h 41m
Length of Day
14h 35m
Waning Crescent, 0% of the Moon is Illuminated
May 9
Waning Crescent
May 9
New
May 17
First Quarter
May 24
Full
May 31
Last Quarter

Hourly Weather History & Observations

Time (CDT) Temp. Windchill Dew Point Humidity Pressure Visibility Wind Dir Wind Speed Gust Speed Precip Events Conditions
12:14 AM 59.0 °F - 55.6 °F 88% 29.97 in 7.0 mi NE 3.5 mph - N/A Rain Light Rain
12:33 AM 59.0 °F - 55.4 °F 88% 29.97 in 7.0 mi NNE 3.5 mph - N/A   Overcast
12:54 AM 58.1 °F - 54.7 °F 88% 29.96 in 5.0 mi Calm Calm - N/A   Light Drizzle
1:14 AM 57.4 °F - 54.5 °F 90% 29.96 in 4.0 mi Calm Calm - N/A   Scattered Clouds
1:33 AM 56.8 °F - 54.0 °F 90% 29.96 in 4.0 mi Calm Calm - N/A   Mostly Cloudy
1:54 AM 57.4 °F - 54.1 °F 89% 29.96 in 5.0 mi Calm Calm - N/A   Overcast
2:13 AM 57.6 °F - 54.5 °F 90% 29.95 in 5.0 mi NNE 3.5 mph - N/A   Overcast
2:33 AM 57.2 °F - 54.1 °F 89% 29.95 in 4.0 mi Calm Calm - N/A   Overcast
2:54 AM 57.2 °F - 54.3 °F 90% 29.95 in 4.0 mi Calm Calm - N/A   Overcast
3:13 AM 56.7 °F - 54.0 °F 91% 29.95 in 2.5 mi Calm Calm - N/A Rain Light Rain
3:33 AM 56.8 °F - 54.3 °F 91% 29.95 in 2.5 mi Calm Calm - N/A Rain Rain
3:54 AM 56.7 °F - 54.3 °F 92% 29.95 in 2.0 mi Calm Calm - 0.03 in Rain Rain
4:13 AM 56.5 °F - 54.1 °F 92% 29.94 in 2.0 mi Calm Calm - 0.01 in Rain Light Rain
4:34 AM 56.5 °F - 54.1 °F 92% 29.94 in 1.5 mi Calm Calm - 0.02 in Rain Rain
4:54 AM 56.3 °F - 54.3 °F 93% 29.94 in 1.5 mi Calm Calm - 0.02 in Rain Light Rain
5:14 AM 56.3 °F - 54.1 °F 92% 29.93 in 1.8 mi Calm Calm - N/A   Overcast
5:34 AM 55.9 °F - 53.8 °F 92% 29.93 in 1.5 mi NNE 3.5 mph - N/A   Overcast
5:53 AM 56.1 °F - 54.0 °F 92% 29.94 in 2.0 mi North 3.5 mph - N/A   Overcast
6:14 AM 56.3 °F - 54.5 °F 94% 29.94 in 4.0 mi North 3.5 mph - N/A Rain Light Rain
6:34 AM 56.3 °F - 54.1 °F 92% 29.94 in 3.0 mi ENE 4.6 mph - N/A   Light Drizzle
6:53 AM 56.3 °F - 54.0 °F 92% 29.95 in 3.0 mi Calm Calm - N/A   Overcast
7:14 AM 56.3 °F - 54.1 °F 92% 29.95 in 4.0 mi Calm Calm - N/A   Overcast
7:34 AM 56.5 °F - 54.1 °F 92% 29.95 in 5.0 mi NNE 4.6 mph - N/A   Overcast
7:53 AM 56.7 °F - 54.3 °F 92% 29.95 in 7.0 mi NNE 4.6 mph - N/A   Overcast
8:14 AM 57.0 °F - 54.1 °F 90% 29.96 in 10.0 mi NNE 4.6 mph - N/A   Overcast
8:34 AM 57.2 °F - 53.6 °F 88% 29.95 in 10.0 mi North 9.2 mph - N/A   Overcast
8:53 AM 57.2 °F - 53.1 °F 86% 29.96 in 10.0 mi North 9.2 mph - N/A   Overcast
9:14 AM 57.2 °F - 53.1 °F 86% 29.95 in 10.0 mi NNE 9.2 mph - N/A   Overcast
9:34 AM 57.6 °F - 53.1 °F 85% 29.95 in 10.0 mi NNE 11.5 mph - N/A   Overcast
9:53 AM 57.6 °F - 52.9 °F 84% 29.96 in 10.0 mi NNE 9.2 mph - N/A   Overcast
10:34 AM 57.2 °F - 52.5 °F 84% 29.96 in 10.0 mi NNE 9.2 mph - N/A   Overcast
10:53 AM 57.4 °F - 52.7 °F 84% 29.96 in 10.0 mi NNE 9.2 mph - N/A   Overcast
11:14 AM 57.7 °F - 52.7 °F 83% 29.96 in 10.0 mi NNE 8.1 mph - N/A   Overcast
11:34 AM 57.9 °F - 52.9 °F 83% 29.97 in 10.0 mi NNE 10.4 mph - N/A   Overcast
12:14 PM 58.1 °F - 52.2 °F 81% 29.97 in 10.0 mi NNE 11.5 mph - N/A   Overcast
12:34 PM 57.9 °F - 52.0 °F 81% 29.97 in 10.0 mi NNE 11.5 mph - N/A   Overcast
12:53 PM 58.1 °F - 52.2 °F 81% 29.97 in 10.0 mi NNE 12.7 mph 17.3 mph N/A   Overcast
1:14 PM 56.8 °F - 51.8 °F 83% 29.97 in 10.0 mi NNE 21.9 mph - N/A Rain Light Rain
1:34 PM 56.5 °F - 52.3 °F 86% 29.97 in 7.0 mi NNE 18.4 mph - 0.01 in Rain Light Rain
1:53 PM 56.3 °F - 52.0 °F 85% 29.97 in 7.0 mi NNE 18.4 mph 25.3 mph 0.02 in Rain Light Rain
2:14 PM 56.3 °F - 52.2 °F 86% 29.97 in 7.0 mi NE 13.8 mph 23.0 mph 0.01 in Rain Light Rain
2:33 PM 55.9 °F - 52.0 °F 87% 29.97 in 7.0 mi NE 17.3 mph 20.7 mph 0.03 in Rain Rain
2:54 PM 55.9 °F - 52.0 °F 87% 29.97 in 10.0 mi NE 17.3 mph 25.3 mph 0.03 in Rain Light Rain
3:13 PM 55.0 °F - 51.4 °F 88% 29.97 in 7.0 mi NNE 16.1 mph 20.7 mph 0.01 in Rain Light Rain
3:33 PM 54.5 °F - 50.9 °F 88% 29.97 in 10.0 mi NNE 20.7 mph 25.3 mph 0.01 in   Light Drizzle
3:54 PM 53.8 °F - 50.0 °F 87% 29.98 in 10.0 mi North 17.3 mph 27.6 mph 0.01 in   Light Drizzle
4:13 PM 52.5 °F - 48.9 °F 88% 29.98 in 10.0 mi North 19.6 mph 23.0 mph N/A   Light Drizzle
4:33 PM 51.1 °F - 47.8 °F 89% 29.98 in 10.0 mi NNE 23.0 mph 27.6 mph N/A   Overcast
4:54 PM 50.9 °F - 47.3 °F 87% 29.98 in 10.0 mi North 21.9 mph 29.9 mph N/A   Overcast
5:13 PM 50.5 °F - 46.8 °F 87% 29.98 in 10.0 mi North 23.0 mph 27.6 mph N/A   Overcast
5:33 PM 49.5 °F - 45.7 °F 87% 29.99 in 10.0 mi North 21.9 mph 26.5 mph N/A   Overcast
5:54 PM 49.1 °F - 45.1 °F 86% 30.00 in 10.0 mi North 21.9 mph - N/A   Overcast
6:13 PM 48.9 °F - 45.0 °F 86% 30.00 in 10.0 mi North 21.9 mph 26.5 mph N/A   Overcast
6:33 PM 48.2 °F - 44.1 °F 86% 30.00 in 10.0 mi North 17.3 mph - N/A   Overcast
6:54 PM 46.9 °F - 43.0 °F 86% 30.00 in 10.0 mi NNE 25.3 mph 29.9 mph N/A   Overcast
7:13 PM 46.4 °F 38.7 °F 42.3 °F 85% 30.01 in 10.0 mi North 20.7 mph 32.2 mph N/A   Overcast
7:33 PM 46.2 °F 38.5 °F 42.3 °F 86% 30.02 in 10.0 mi NNE 20.7 mph 27.6 mph N/A   Overcast
7:54 PM 46.4 °F 39.0 °F 42.1 °F 85% 30.02 in 10.0 mi NNE 19.6 mph 26.5 mph N/A   Overcast
8:13 PM 46.4 °F 38.5 °F 41.9 °F 84% 30.02 in 10.0 mi NNE 21.9 mph 28.8 mph N/A   Overcast
8:33 PM 46.2 °F 39.0 °F 41.7 °F 84% 30.03 in 10.0 mi NNE 18.4 mph 24.2 mph N/A   Overcast
8:54 PM 46.4 °F 39.8 °F 41.5 °F 83% 30.04 in 10.0 mi NNE 16.1 mph 24.2 mph N/A   Overcast
9:13 PM 46.0 °F 38.5 °F 41.0 °F 83% 30.03 in 10.0 mi NNE 19.6 mph 23.0 mph N/A   Overcast
9:33 PM 45.9 °F 38.5 °F 40.1 °F 80% 30.04 in 10.0 mi NNE 18.4 mph 26.5 mph N/A   Overcast
9:53 PM 45.7 °F 38.6 °F 39.4 °F 79% 30.05 in 10.0 mi NNE 17.3 mph 24.2 mph N/A   Overcast
10:14 PM 45.7 °F 38.8 °F 38.7 °F 76% 30.05 in 10.0 mi NNE 16.1 mph - N/A   Overcast
10:33 PM 45.9 °F 39.1 °F 38.5 °F 75% 30.05 in 10.0 mi NNE 16.1 mph - N/A   Overcast
10:54 PM 46.0 °F 39.6 °F 38.7 °F 75% 30.05 in 10.0 mi NNE 15.0 mph 21.9 mph N/A   Overcast
11:13 PM 45.7 °F 39.8 °F 38.5 °F 76% 30.06 in 10.0 mi NNE 12.7 mph - N/A   Overcast
11:34 PM 45.5 °F 39.6 °F 37.2 °F 73% 30.06 in 10.0 mi NNE 12.7 mph - N/A   Overcast
11:53 PM 45.1 °F 38.8 °F 36.9 °F 73% 30.06 in 10.0 mi NNE 13.8 mph - N/A   Overcast